When you browse on this site, cookies collect data to enhance your experience and personalize the content and advertising you see.
Visit our Privacy Policy to learn more. By continuing to use the site, you agree to this use of cookies and data.

Hourly Weather Perth

Today, 8 July, Wednesday

Time Temperature Precipitation Wind Pressure Humidity
00:00 +14°C° 0.3 mm 3 mps 765 mmHg 80%
01:00 +14°C° 0.3 mm 3 mps 765 mmHg 80%
02:00 +14°C° 0 mm 3 mps 765 mmHg 78%
03:00 +14°C° 0 mm 2 mps 765 mmHg 78%
04:00 +14°C° 0 mm 2 mps 765 mmHg 78%
05:00 +13°C° 0 mm 2 mps 765 mmHg 77%
06:00 +13°C° 0 mm 2 mps 765 mmHg 77%
07:00 +13°C° 0 mm 1 mps 765 mmHg 76%
08:00 +14°C° 0 mm 1 mps 766 mmHg 74%
09:00 +15°C° 0 mm 1 mps 766 mmHg 70%
10:00 +16°C° 0 mm 1 mps 766 mmHg 65%
11:00 +18°C° 0 mm 1 mps 766 mmHg 61%
12:00 +17°C° 0 mm 2 mps 766 mmHg 61%
13:00 +17°C° 0 mm 2 mps 765 mmHg 62%
14:00 +17°C° 0 mm 3 mps 765 mmHg 62%
15:00 +17°C° 0.1 mm 3 mps 765 mmHg 66%
16:00 +16°C° 0.1 mm 3 mps 765 mmHg 69%
17:00 +16°C° 0.1 mm 3 mps 765 mmHg 72%
18:00 +14°C° 0 mm 3 mps 765 mmHg 74%
19:00 +14°C° 0 mm 2 mps 766 mmHg 75%
20:00 +14°C° 0 mm 2 mps 766 mmHg 76%
21:00 +13°C° 0 mm 2 mps 766 mmHg 77%
22:00 +13°C° 0 mm 2 mps 766 mmHg 79%
23:00 +12°C° 0 mm 2 mps 767 mmHg 80%

Tomorrow, 9 July, Thursday

Time Temperature Precipitation Wind Pressure Humidity
00:00 +12°C° 0 mm 2 mps 767 mmHg 81%
01:00 +12°C° 0 mm 2 mps 767 mmHg 82%
02:00 +10°C° 0 mm 2 mps 767 mmHg 83%
03:00 +10°C° 0 mm 2 mps 767 mmHg 84%
04:00 +10°C° 0 mm 2 mps 767 mmHg 84%
05:00 +9°C° 0 mm 2 mps 767 mmHg 85%
06:00 +9°C° 0 mm 2 mps 767 mmHg 84%
07:00 +9°C° 0 mm 2 mps 768 mmHg 83%
08:00 +9°C° 0 mm 2 mps 768 mmHg 82%
09:00 +12°C° 0 mm 2 mps 768 mmHg 75%
10:00 +13°C° 0 mm 2 mps 768 mmHg 67%
11:00 +14°C° 0 mm 3 mps 769 mmHg 59%
12:00 +15°C° 0 mm 2 mps 768 mmHg 55%
13:00 +16°C° 0 mm 2 mps 768 mmHg 52%
14:00 +17°C° 0 mm 2 mps 767 mmHg 49%
15:00 +17°C° 0 mm 2 mps 768 mmHg 52%
16:00 +16°C° 0 mm 2 mps 768 mmHg 56%
17:00 +16°C° 0 mm 3 mps 768 mmHg 60%
18:00 +15°C° 0 mm 2 mps 768 mmHg 62%
19:00 +14°C° 0 mm 2 mps 769 mmHg 64%
20:00 +13°C° 0 mm 2 mps 769 mmHg 67%
21:00 +12°C° 0 mm 2 mps 769 mmHg 68%
22:00 +12°C° 0 mm 2 mps 769 mmHg 70%
23:00 +12°C° 0 mm 2 mps 770 mmHg 71%

Day after tomorrow, 10 July, Friday

Time Temperature Precipitation Wind Pressure Humidity
00:00 +10°C° 0 mm 2 mps 770 mmHg 75%
01:00 +10°C° 0 mm 3 mps 770 mmHg 78%
02:00 +10°C° 0 mm 3 mps 770 mmHg 81%
03:00 +9°C° 0 mm 3 mps 770 mmHg 82%
04:00 +9°C° 0 mm 3 mps 770 mmHg 83%
05:00 +9°C° 0 mm 2 mps 770 mmHg 84%
06:00 +9°C° 0 mm 3 mps 771 mmHg 82%
07:00 +9°C° 0 mm 3 mps 771 mmHg 81%
08:00 +9°C° 0 mm 3 mps 771 mmHg 80%
09:00 +10°C° 0 mm 3 mps 771 mmHg 73%
10:00 +11°C° 0 mm 3 mps 771 mmHg 66%
11:00 +13°C° 0 mm 4 mps 771 mmHg 59%
12:00 +13°C° 0 mm 3 mps 771 mmHg 56%
13:00 +14°C° 0 mm 3 mps 770 mmHg 53%
14:00 +16°C° 0 mm 3 mps 769 mmHg 49%
15:00 +14°C° 0 mm 3 mps 769 mmHg 51%
16:00 +14°C° 0 mm 3 mps 769 mmHg 54%
17:00 +13°C° 0 mm 3 mps 770 mmHg 56%
18:00 +12°C° 0 mm 3 mps 770 mmHg 58%
19:00 +11°C° 0 mm 3 mps 770 mmHg 60%
20:00 +10°C° 0 mm 3 mps 770 mmHg 63%
21:00 +10°C° 0 mm 3 mps 770 mmHg 63%
22:00 +10°C° 0 mm 3 mps 770 mmHg 63%
23:00 +10°C° 0 mm 3 mps 770 mmHg 63%

11 July, Saturday

Time Temperature Precipitation Wind Pressure Humidity
00:00 +8°C° 0 mm 4 mps 770 mmHg 63%
01:00 +8°C° 0 mm 4 mps 770 mmHg 64%
02:00 +8°C° 0 mm 5 mps 770 mmHg 64%
03:00 +8°C° 0 mm 5 mps 770 mmHg 66%
04:00 +8°C° 0 mm 5 mps 770 mmHg 68%
05:00 +7°C° 0 mm 5 mps 769 mmHg 69%
06:00 +7°C° 0 mm 5 mps 770 mmHg 70%
07:00 +7°C° 0 mm 5 mps 770 mmHg 71%
08:00 +7°C° 0 mm 5 mps 770 mmHg 72%
09:00 +9°C° 0 mm 5 mps 770 mmHg 66%
10:00 +12°C° 0 mm 5 mps 770 mmHg 60%
11:00 +13°C° 0 mm 5 mps 770 mmHg 53%
12:00 +14°C° 0 mm 5 mps 769 mmHg 51%
13:00 +15°C° 0 mm 5 mps 768 mmHg 49%
14:00 +18°C° 0 mm 4 mps 767 mmHg 47%
15:00 +17°C° 0 mm 4 mps 767 mmHg 50%
16:00 +16°C° 0 mm 3 mps 767 mmHg 53%
17:00 +16°C° 0 mm 3 mps 767 mmHg 56%
18:00 +14°C° 0 mm 3 mps 767 mmHg 58%
19:00 +13°C° 0 mm 3 mps 767 mmHg 60%
20:00 +12°C° 0 mm 3 mps 767 mmHg 62%
21:00 +11°C° 0 mm 4 mps 767 mmHg 61%
22:00 +11°C° 0 mm 4 mps 766 mmHg 59%
23:00 +11°C° 0 mm 4 mps 766 mmHg 57%

12 July, Sunday

Time Temperature Precipitation Wind Pressure Humidity
00:00 +11°C° 0 mm 4 mps 766 mmHg 56%
01:00 +11°C° 0 mm 4 mps 765 mmHg 54%
02:00 +11°C° 0 mm 4 mps 765 mmHg 52%
03:00 +10°C° 0 mm 4 mps 765 mmHg 52%
04:00 +10°C° 0 mm 4 mps 764 mmHg 52%
05:00 +10°C° 0 mm 4 mps 764 mmHg 51%
06:00 +10°C° 0 mm 4 mps 764 mmHg 51%
07:00 +10°C° 0 mm 4 mps 764 mmHg 51%
08:00 +10°C° 0 mm 4 mps 764 mmHg 52%
09:00 +12°C° 0 mm 5 mps 764 mmHg 48%
10:00 +14°C° 0 mm 5 mps 764 mmHg 45%
11:00 +16°C° 0 mm 6 mps 764 mmHg 42%
12:00 +17°C° 0 mm 5 mps 763 mmHg 41%
13:00 +19°C° 0 mm 5 mps 762 mmHg 39%
14:00 +20°C° 0 mm 5 mps 761 mmHg 38%
15:00 +19°C° 0 mm 4 mps 761 mmHg 43%
16:00 +19°C° 0 mm 4 mps 761 mmHg 47%
17:00 +18°C° 0 mm 3 mps 761 mmHg 51%
18:00 +17°C° 0 mm 3 mps 761 mmHg 54%
19:00 +16°C° 0 mm 3 mps 761 mmHg 56%
20:00 +14°C° 0 mm 3 mps 762 mmHg 59%
21:00 +14°C° 0 mm 3 mps 762 mmHg 58%
22:00 +13°C° 0 mm 3 mps 762 mmHg 58%
23:00 +13°C° 0 mm 3 mps 761 mmHg 57%

13 July, Monday

Time Temperature Precipitation Wind Pressure Humidity
00:00 +13°C° 0 mm 3 mps 761 mmHg 56%
01:00 +12°C° 0 mm 3 mps 761 mmHg 54%
02:00 +12°C° 0 mm 3 mps 761 mmHg 52%
03:00 +12°C° 0 mm 4 mps 761 mmHg 51%
04:00 +12°C° 0 mm 4 mps 761 mmHg 50%
05:00 +12°C° 0 mm 4 mps 760 mmHg 49%
06:00 +12°C° 0 mm 4 mps 761 mmHg 48%
07:00 +12°C° 0 mm 4 mps 761 mmHg 47%
08:00 +12°C° 0 mm 4 mps 761 mmHg 45%
09:00 +14°C° 0 mm 4 mps 761 mmHg 42%
10:00 +17°C° 0 mm 4 mps 760 mmHg 39%
11:00 +19°C° 0 mm 5 mps 760 mmHg 36%
12:00 +20°C° 0 mm 5 mps 759 mmHg 36%
13:00 +21°C° 0 mm 5 mps 758 mmHg 35%
14:00 +22°C° 0 mm 5 mps 758 mmHg 35%
15:00 +21°C° 0 mm 4 mps 757 mmHg 39%
16:00 +20°C° 0 mm 4 mps 757 mmHg 44%
17:00 +19°C° 0 mm 3 mps 757 mmHg 49%
18:00 +19°C° 0 mm 3 mps 756 mmHg 47%
19:00 +18°C° 0 mm 4 mps 756 mmHg 46%
20:00 +17°C° 0 mm 4 mps 756 mmHg 45%
21:00 +17°C° 0 mm 4 mps 755 mmHg 42%
22:00 +16°C° 0 mm 5 mps 755 mmHg 39%
23:00 +16°C° 0 mm 5 mps 754 mmHg 37%
Show more